This demonstration page uses our WeatherBlox Daily Observations layout. Learn more.

Left ArrowRight Arrow

Hourly Observations for March 25, 2022

Temp ( °F °C ) Dew Point ( °F °C ) Humidity (%) Winds ( mph kmh ) Pressure ( in mb ) Visibility ( mi km ) Precip ( " mm )
12:59 am 00:59 Cloudy 66 18.9 59 15 78 78 SW 10 17 29.74 1007 10 16 0.00 0.00
1:46 am 01:46 Cloudy 65 18.3 59 15 81 81 SW 7 11 29.73 1007 10 16 0.00 0.00
1:59 am 01:59 Cloudy 65 18.3 58 14.4 78 78 SW 10 17 29.73 1007 10 16 0.00 0.00
2:59 am 02:59 Mostly Cloudy 64 17.8 58 14.4 81 81 SW 7 11 29.73 1007 10 16 0.00 0.00
3:59 am 03:59 Mostly Cloudy 64 17.8 55 12.8 73 73 WSW 9 15 29.76 1008 10 16 0.00 0.00
4:59 am 04:59 Mostly Cloudy 63 17.2 47 8.3 56 56 WSW 12 19 29.74 1007 10 16 0.00 0.00
5:59 am 05:59 Cloudy 59 15 50 10 72 72 NNE 9 15 29.73 1007 10 16 0.00 0.00
6:59 am 06:59 Mostly Cloudy 56 13.3 50 10 81 81 N 5 7 29.76 1008 10 16 0.00 0.00
7:59 am 07:59 Cloudy 56 13.3 50 10 81 81 NNE 8 13 29.70 1006 10 16 0.00 0.00
8:59 am 08:59 Cloudy 56 13.3 50 10 81 81 NNE 5 7 29.76 1008 10 16 0.00 0.00
9:59 am 09:59 Cloudy 58 14.4 50 10 75 75 N 6 9 29.75 1008 10 16 0.00 0.00
10:59 am 10:59 Mostly Cloudy 60 15.6 48 8.9 65 65 NNE 6 9 29.75 1008 10 16 0.00 0.00
11:59 am 11:59 Mostly Cloudy 61 16.1 47 8.3 60 60 NNE 6 9 29.76 1008 10 16 0.00 0.00
12:59 pm 12:59 Cloudy 61 16.1 43 6.1 52 52 N 7 11 29.76 1008 10 16 0.00 0.00
1:26 pm 13:26 Cloudy with Light Rain 60 15.6 40 4.4 47 47 NNW 3 6 29.76 1008 10 16 0.00 0.00
1:59 pm 13:59 Partly Cloudy 62 16.7 41 5 46 46 Calm 29.72 1006 10 16 0.00 0.00
2:59 pm 14:59 Partly Cloudy 65 18.3 42 5.6 43 43 SSW 13 20 29.69 1005 10 16 0.00 0.00
3:59 pm 15:59 Mostly Cloudy 64 17.8 41 5 43 43 WSW 9 15 29.66 1005 10 16 0.00 0.00
4:59 pm 16:59 Mostly Cloudy 68 20 41 5 38 38 SW 13 20 29.65 1004 10 16 0.00 0.00
5:59 pm 17:59 Mostly Cloudy 67 19.4 36 2.2 32 32 WSW 13 20 29.66 1004 10 16 0.00 0.00
6:59 pm 18:59 Mostly Cloudy 64 17.8 37 2.8 37 37 W 10 17 29.67 1005 10 16 0.00 0.00
7:59 pm 19:59 Mostly Cloudy 62 16.7 38 3.3 41 41 WSW 5 7 29.68 1005 10 16 0.00 0.00
8:59 pm 20:59 Partly Cloudy 55 12.8 40 4.4 57 57 Calm 29.69 1005 10 16 0.00 0.00
9:59 pm 21:59 Partly Cloudy 52 11.1 42 5.6 69 69 Calm 29.69 1005 10 16 0.00 0.00
10:59 pm 22:59 Mostly Clear 54 12.2 40 4.4 59 59 Calm 29.69 1005 10 16 0.00 0.00
11:59 pm 23:59 Cloudy 57 13.9 42 5.6 58 58 W 10 17 29.69 1005 10 16 0.00 0.00

Powered by AerisWeather